| time (UTC) | temp F | wind direction | speed MPH | gust MPH | rain 1hr in | rain 24hr in | rain mn in | humidity % | barometer mb |
| 20260507003813 | 77 | 324 | 4.0 | 12.0 | 0.00 | 0.00 | 0.00 | 21 | 1008.4 |
| 20260507003314 | 77 | 269 | 7.0 | 12.0 | 0.00 | 0.00 | 0.00 | 21 | 1008.4 |
| 20260507002813 | 78 | 269 | 5.0 | 10.0 | 0.00 | 0.00 | 0.00 | 21 | 1008.4 |
| 20260507002315 | 78 | 276 | 5.0 | 11.0 | 0.00 | 0.00 | 0.00 | 21 | 1008.4 |
| 20260507001814 | 78 | 286 | 6.0 | 12.0 | 0.00 | 0.00 | 0.00 | 20 | 1008.3 |
| 20260507001314 | 78 | 255 | 4.0 | 12.0 | 0.00 | 0.00 | 0.00 | 21 | 1008.3 |
| 20260507000813 | 78 | 192 | 5.0 | 11.0 | 0.00 | 0.00 | 0.00 | 21 | 1008.3 |
| 20260507000314 | 77 | 326 | 6.0 | 13.0 | 0.00 | 0.00 | 0.00 | 21 | 1008.3 |
| 20260506235813 | 78 | 289 | 7.0 | 13.0 | 0.00 | 0.00 | 0.00 | 21 | 1008.2 |
| 20260506235313 | 78 | 290 | 3.0 | 12.0 | 0.00 | 0.00 | 0.00 | 21 | 1008.3 |
| 20260506234813 | 78 | 220 | 4.0 | 11.0 | 0.00 | 0.00 | 0.00 | 21 | 1008.2 |
| 20260506234312 | 78 | 258 | 6.0 | 11.0 | 0.00 | 0.00 | 0.00 | 21 | 1008.2 |
| 20260506233812 | 79 | 295 | 5.0 | 14.0 | 0.00 | 0.00 | 0.00 | 21 | 1008.3 |
| 20260506233312 | 79 | 293 | 4.0 | 14.0 | 0.00 | 0.00 | 0.00 | 21 | 1008.3 |
| 20260506232812 | 79 | 204 | 4.0 | 13.0 | 0.00 | 0.00 | 0.00 | 21 | 1008.3 |
| 20260506232532 | 79 | 269 | 4.0 | 11.0 | 0.00 | 0.00 | 0.00 | 21 | 1008.3 |
| 20260506231812 | 78 | 166 | 3.0 | 11.0 | 0.00 | 0.00 | 0.00 | 21 | 1008.3 |
| 20260506231312 | 78 | 244 | 4.0 | 12.0 | 0.00 | 0.00 | 0.00 | 21 | 1008.4 |
| 20260506230812 | 78 | 275 | 6.0 | 12.0 | 0.00 | 0.00 | 0.00 | 21 | 1008.4 |
| 20260506230804 | 78 | 233 | 4.0 | 10.0 | 0.00 | 0.00 | 0.00 | 22 | 1008.5 |
| 20260506225812 | 78 | 299 | 6.0 | 10.0 | 0.00 | 0.00 | 0.00 | 22 | 1008.5 |
| 20260506225311 | 78 | 255 | 5.0 | 16.0 | 0.00 | 0.00 | 0.00 | 22 | 1008.5 |
| 20260506224811 | 78 | 250 | 8.0 | 16.0 | 0.00 | 0.00 | 0.00 | 22 | 1008.6 |
| 20260506224312 | 78 | 241 | 6.0 | 15.0 | 0.00 | 0.00 | 0.00 | 23 | 1008.6 |
| 20260506224305 | 78 | 261 | 6.0 | 15.0 | 0.00 | 0.00 | 0.00 | 23 | 1008.6 |
| 20260506223532 | 78 | 324 | 3.0 | 14.0 | 0.00 | 0.00 | 0.00 | 23 | 1008.5 |
| 20260506222811 | 78 | 261 | 3.0 | 11.0 | 0.00 | 0.00 | 0.00 | 22 | 1008.6 |
| 20260506222533 | 79 | 243 | 3.0 | 10.0 | 0.00 | 0.00 | 0.00 | 23 | 1008.7 |
| 20260506221810 | 78 | 262 | 4.0 | 12.0 | 0.00 | 0.00 | 0.00 | 23 | 1008.7 |
| 20260506221530 | 78 | 293 | 4.0 | 12.0 | 0.00 | 0.00 | 0.00 | 23 | 1008.7 |
| 20260506220811 | 77 | 220 | 5.0 | 12.0 | 0.00 | 0.00 | 0.00 | 23 | 1008.7 |
| 20260506220311 | 78 | 303 | 8.0 | 12.0 | 0.00 | 0.00 | 0.00 | 23 | 1008.8 |
| 20260506220029 | 78 | 230 | 5.0 | 12.0 | 0.00 | 0.00 | 0.00 | 23 | 1008.8 |
| 20260506215311 | 78 | 278 | 3.0 | 11.0 | 0.00 | 0.00 | 0.00 | 23 | 1008.9 |
| 20260506215253 | 78 | 250 | 3.0 | 11.0 | 0.00 | 0.00 | 0.00 | 23 | 1008.8 |
| 20260506214310 | 79 | 302 | 3.0 | 9.0 | 0.00 | 0.00 | 0.00 | 23 | 1009.1 |
| 20260506213810 | 78 | 221 | 2.0 | 7.0 | 0.00 | 0.00 | 0.00 | 24 | 1009.1 |
| 20260506213309 | 76 | 266 | 3.0 | 9.0 | 0.00 | 0.00 | 0.00 | 25 | 1009.1 |
| 20260506212809 | 76 | 289 | 3.0 | 11.0 | 0.00 | 0.00 | 0.00 | 24 | 1009.2 |
| 20260506212309 | 77 | 271 | 5.0 | 11.0 | 0.00 | 0.00 | 0.00 | 24 | 1009.4 |
| 20260506211809 | 77 | 250 | 5.0 | 10.0 | 0.00 | 0.00 | 0.00 | 24 | 1009.5 |
| 20260506211310 | 78 | 271 | 2.0 | 7.0 | 0.00 | 0.00 | 0.00 | 24 | 1009.5 |
| 20260506210810 | 78 | 251 | 3.0 | 12.0 | 0.00 | 0.00 | 0.00 | 24 | 1009.5 |
| 20260506210309 | 78 | 137 | 2.0 | 12.0 | 0.00 | 0.00 | 0.00 | 24 | 1009.5 |
| 20260506205809 | 78 | 258 | 2.0 | 11.0 | 0.00 | 0.00 | 0.00 | 24 | 1009.6 |
| 20260506205309 | 78 | 230 | 4.0 | 11.0 | 0.00 | 0.00 | 0.00 | 25 | 1009.6 |
| 20260506204808 | 78 | 164 | 3.0 | 10.0 | 0.00 | 0.00 | 0.00 | 25 | 1009.8 |
| 20260506204309 | 77 | 168 | 4.0 | 10.0 | 0.00 | 0.00 | 0.00 | 26 | 1009.8 |
| 20260506204028 | 76 | 230 | 4.0 | 9.0 | 0.00 | 0.00 | 0.00 | 26 | 1009.8 |
| 20260506203309 | 77 | 224 | 4.0 | 11.0 | 0.00 | 0.00 | 0.00 | 26 | 1009.8 |
| 20260506203041 | 77 | 195 | 5.0 | 11.0 | 0.00 | 0.00 | 0.00 | 26 | 1009.9 |
| 20260506202308 | 77 | 251 | 2.0 | 10.0 | 0.00 | 0.00 | 0.00 | 25 | 1010.0 |
| 20260506201807 | 77 | 248 | 4.0 | 9.0 | 0.00 | 0.00 | 0.00 | 26 | 1010.0 |
| 20260506201308 | 77 | 223 | 3.0 | 10.0 | 0.00 | 0.00 | 0.00 | 27 | 1010.0 |
| 20260506201253 | 76 | 207 | 5.0 | 10.0 | 0.00 | 0.00 | 0.00 | 28 | 1010.1 |
| 20260506200308 | 76 | 161 | 2.0 | 11.0 | 0.00 | 0.00 | 0.00 | 28 | 1010.1 |
| 20260506200024 | 76 | 212 | 5.0 | 11.0 | 0.00 | 0.00 | 0.00 | 28 | 1010.2 |
| 20260506195308 | 75 | 210 | 3.0 | 10.0 | 0.00 | 0.00 | 0.00 | 28 | 1010.2 |
| 20260506194807 | 75 | 140 | 5.0 | 10.0 | 0.00 | 0.00 | 0.00 | 28 | 1010.3 |
| 20260506194306 | 74 | 250 | 2.0 | 10.0 | 0.00 | 0.00 | 0.00 | 30 | 1010.3 |
| 20260506193806 | 74 | 300 | 3.0 | 10.0 | 0.00 | 0.00 | 0.00 | 29 | 1010.4 |
| 20260506193307 | 75 | 266 | 3.0 | 7.0 | 0.00 | 0.00 | 0.00 | 29 | 1010.5 |
| 20260506192807 | 75 | 262 | 2.0 | 7.0 | 0.00 | 0.00 | 0.00 | 29 | 1010.5 |
| 20260506192307 | 74 | 51 | 1.0 | 5.0 | 0.00 | 0.00 | 0.00 | 29 | 1010.5 |
| 20260506191806 | 74 | 78 | 1.0 | 7.0 | 0.00 | 0.00 | 0.00 | 29 | 1010.7 |
| 20260506191307 | 73 | 210 | 3.0 | 10.0 | 0.00 | 0.00 | 0.00 | 31 | 1010.9 |
| 20260506190806 | 73 | 258 | 4.0 | 10.0 | 0.00 | 0.00 | 0.00 | 31 | 1010.8 |
| 20260506190306 | 73 | 296 | 3.0 | 11.0 | 0.00 | 0.00 | 0.00 | 32 | 1010.9 |
| 20260506185805 | 74 | 295 | 4.0 | 11.0 | 0.00 | 0.00 | 0.00 | 30 | 1010.9 |
| 20260506185530 | 74 | 289 | 2.0 | 7.0 | 0.00 | 0.00 | 0.00 | 31 | 1010.8 |
| 20260506184806 | 72 | 168 | 2.0 | 9.0 | 0.00 | 0.00 | 0.00 | 33 | 1010.8 |
| 20260506184307 | 72 | 285 | 2.0 | 9.0 | 0.00 | 0.00 | 0.00 | 35 | 1010.9 |
| 20260506184035 | 72 | 27 | 3.0 | 9.0 | 0.00 | 0.00 | 0.00 | 33 | 1010.9 |
| 20260506183305 | 73 | 0 | 3.0 | 9.0 | 0.00 | 0.00 | 0.00 | 32 | 1011.0 |
| 20260506182806 | 73 | 226 | 3.0 | 9.0 | 0.00 | 0.00 | 0.00 | 33 | 1011.1 |
| 20260506182307 | 72 | 200 | 3.0 | 6.0 | 0.00 | 0.00 | 0.00 | 34 | 1011.2 |
| 20260506181805 | 72 | 296 | 2.0 | 6.0 | 0.00 | 0.00 | 0.00 | 34 | 1011.2 |
| 20260506181304 | 72 | 252 | 2.0 | 7.0 | 0.00 | 0.00 | 0.00 | 33 | 1011.3 |
| 20260506180805 | 72 | 268 | 3.0 | 7.0 | 0.00 | 0.00 | 0.00 | 33 | 1011.4 |
| 20260506180310 | 72 | 206 | 3.0 | 6.0 | 0.00 | 0.00 | 0.00 | 33 | 1011.3 |
| 20260506180027 | 72 | 254 | 0.0 | 5.0 | 0.00 | 0.00 | 0.00 | 34 | 1011.3 |
| 20260506175306 | 70 | 271 | 0.0 | 6.0 | 0.00 | 0.00 | 0.00 | 34 | 1011.3 |
| 20260506174805 | 70 | 292 | 1.0 | 6.0 | 0.00 | 0.00 | 0.00 | 34 | 1011.3 |
| 20260506174305 | 71 | 248 | 2.0 | 6.0 | 0.00 | 0.00 | 0.00 | 34 | 1011.4 |
| 20260506174249 | 71 | 254 | 2.0 | 6.0 | 0.00 | 0.00 | 0.00 | 35 | 1011.3 |
| 20260506173303 | 71 | 241 | 2.0 | 6.0 | 0.00 | 0.00 | 0.00 | 34 | 1011.4 |
| 20260506172803 | 70 | 310 | 3.0 | 6.0 | 0.00 | 0.00 | 0.00 | 34 | 1011.4 |
| 20260506172306 | 70 | 261 | 2.0 | 10.0 | 0.00 | 0.00 | 0.00 | 35 | 1011.4 |
| 20260506171804 | 70 | 251 | 3.0 | 10.0 | 0.00 | 0.00 | 0.00 | 36 | 1011.4 |
| 20260506171304 | 70 | 341 | 3.0 | 6.0 | 0.00 | 0.00 | 0.00 | 34 | 1011.2 |
| 20260506170804 | 70 | 212 | 2.0 | 6.0 | 0.00 | 0.00 | 0.00 | 33 | 1011.4 |
| 20260506170527 | 69 | 202 | 1.0 | 6.0 | 0.00 | 0.00 | 0.00 | 36 | 1011.4 |
| 20260506165804 | 68 | 151 | 1.0 | 6.0 | 0.00 | 0.00 | 0.00 | 37 | 1011.4 |
| 20260506165305 | 68 | 63 | 3.0 | 7.0 | 0.00 | 0.00 | 0.00 | 37 | 1011.4 |
| 20260506164803 | 68 | 230 | 2.0 | 7.0 | 0.00 | 0.00 | 0.00 | 39 | 1011.3 |
| 20260506164303 | 68 | 281 | 2.0 | 5.0 | 0.00 | 0.00 | 0.00 | 40 | 1011.4 |
| 20260506163804 | 67 | 272 | 1.0 | 5.0 | 0.00 | 0.00 | 0.00 | 42 | 1011.4 |
| 20260506163303 | 66 | 279 | 2.0 | 7.0 | 0.00 | 0.00 | 0.00 | 43 | 1011.3 |
| 20260506162803 | 67 | 283 | 3.0 | 7.0 | 0.00 | 0.00 | 0.00 | 44 | 1011.3 |
| 20260506162522 | 66 | 298 | 2.0 | 5.0 | 0.00 | 0.00 | 0.00 | 43 | 1011.3 |
| 20260506161803 | 66 | 250 | 1.0 | 5.0 | 0.00 | 0.00 | 0.00 | 44 | 1011.2 |
| 20260506161303 | 66 | 199 | 2.0 | 5.0 | 0.00 | 0.00 | 0.00 | 44 | 1011.2 |
| 20260506160801 | 66 | 306 | 2.0 | 5.0 | 0.00 | 0.00 | 0.00 | 44 | 1011.3 |
| 20260506160302 | 66 | 121 | 2.0 | 6.0 | 0.00 | 0.00 | 0.00 | 44 | 1011.3 |
| 20260506160026 | 66 | 226 | 2.0 | 6.0 | 0.00 | 0.00 | 0.00 | 45 | 1011.2 |
| 20260506155305 | 65 | 216 | 2.0 | 4.0 | 0.00 | 0.00 | 0.00 | 45 | 1011.2 |
| 20260506154802 | 65 | 233 | 1.0 | 3.0 | 0.00 | 0.00 | 0.00 | 46 | 1011.1 |
| 20260506154302 | 64 | 13 | 0.0 | 4.0 | 0.00 | 0.00 | 0.00 | 46 | 1011.2 |
| 20260506153802 | 64 | 206 | 0.0 | 5.0 | 0.00 | 0.00 | 0.00 | 48 | 1011.1 |
| 20260506153303 | 64 | 169 | 2.0 | 5.0 | 0.00 | 0.00 | 0.00 | 49 | 1011.1 |
| 20260506152758 | 64 | 279 | 2.0 | 4.0 | 0.00 | 0.00 | 0.00 | 49 | 1011.2 |
| 20260506152305 | 64 | 314 | 1.0 | 3.0 | 0.00 | 0.00 | 0.00 | 48 | 1011.2 |
| 20260506151801 | 65 | 226 | 1.0 | 3.0 | 0.00 | 0.00 | 0.00 | 48 | 1011.2 |
| 20260506151301 | 64 | 102 | 0.0 | 0.0 | 0.00 | 0.00 | 0.00 | 47 | 1011.2 |
| 20260506150801 | 63 | 102 | 0.0 | 0.0 | 0.00 | 0.00 | 0.00 | 47 | 1011.1 |
| 20260506150739 | 64 | 151 | 0.0 | 2.0 | 0.00 | 0.00 | 0.00 | 48 | 1011.2 |
| 20260506145801 | 63 | 213 | 0.0 | 3.0 | 0.00 | 0.00 | 0.00 | 48 | 1011.2 |
| 20260506145300 | 62 | 204 | 0.0 | 3.0 | 0.00 | 0.00 | 0.00 | 51 | 1011.1 |
| 20260506144800 | 62 | 248 | 0.0 | 0.0 | 0.00 | 0.00 | 0.00 | 51 | 1011.1 |
| 20260506144301 | 62 | 296 | 0.0 | 2.0 | 0.00 | 0.00 | 0.00 | 51 | 1011.2 |
| 20260506143800 | 63 | 296 | 1.0 | 2.0 | 0.00 | 0.00 | 0.00 | 49 | 1011.1 |
| 20260506143300 | 63 | 219 | 0.0 | 1.0 | 0.00 | 0.00 | 0.00 | 49 | 1011.2 |
| 20260506143021 | 63 | 180 | 0.0 | 1.0 | 0.00 | 0.00 | 0.00 | 50 | 1011.2 |
| 20260506142300 | 62 | 159 | 0.0 | 0.0 | 0.00 | 0.00 | 0.00 | 51 | 1011.2 |
| 20260506141800 | 61 | 159 | 0.0 | 0.0 | 0.00 | 0.00 | 0.00 | 52 | 1011.1 |
| 20260506141300 | 61 | 159 | 0.0 | 0.0 | 0.00 | 0.00 | 0.00 | 52 | 1011.2 |
| 20260506140800 | 61 | 159 | 0.0 | 0.0 | 0.00 | 0.00 | 0.00 | 52 | 1011.1 |
| 20260506140256 | 61 | 158 | 0.0 | 0.0 | 0.00 | 0.00 | 0.00 | 52 | 1011.1 |
| 20260506135758 | 61 | 159 | 0.0 | 0.0 | 0.00 | 0.00 | 0.00 | 53 | 1011.0 |
| 20260506135259 | 60 | 14 | 0.0 | 0.0 | 0.00 | 0.00 | 0.00 | 56 | 1011.0 |
| 20260506134759 | 58 | 14 | 0.0 | 0.0 | 0.00 | 0.00 | 0.00 | 61 | 1011.0 |
| 20260506134522 | 57 | 13 | 0.0 | 0.0 | 0.00 | 0.00 | 0.00 | 67 | 1011.0 |
| 20260506133759 | 56 | 14 | 0.0 | 0.0 | 0.00 | 0.00 | 0.00 | 67 | 1010.9 |
| 20260506133524 | 55 | 14 | 0.0 | 0.0 | 0.00 | 0.00 | 0.00 | 71 | 1010.9 |
| 20260506132758 | 54 | 14 | 0.0 | 0.0 | 0.00 | 0.00 | 0.00 | 71 | 1010.9 |
| 20260506132254 | 53 | 14 | 0.0 | 0.0 | 0.00 | 0.00 | 0.00 | 71 | 1010.8 |
| 20260506131755 | 53 | 14 | 0.0 | 0.0 | 0.00 | 0.00 | 0.00 | 74 | 1010.8 |
| 20260506131525 | 51 | 14 | 0.0 | 0.0 | 0.00 | 0.00 | 0.00 | 75 | 1010.8 |
| 20260506131111 | 51 | 14 | 0.0 | 0.0 | 0.00 | 0.00 | 0.00 | 76 | 1010.7 |
| 20260506131007 | 51 | 14 | 0.0 | 0.0 | 0.00 | 0.00 | 0.00 | 77 | 1010.8 |
| 20260506125757 | 51 | 14 | 0.0 | 0.0 | 0.00 | 0.00 | 0.00 | 76 | 1010.8 |
| 20260506125257 | 50 | 14 | 0.0 | 0.0 | 0.00 | 0.00 | 0.00 | 76 | 1010.7 |
| 20260506124758 | 50 | 14 | 0.0 | 0.0 | 0.00 | 0.00 | 0.00 | 76 | 1010.7 |
| 20260506124257 | 50 | 17 | 0.0 | 0.0 | 0.00 | 0.00 | 0.00 | 78 | 1010.5 |
| 20260506123753 | 50 | 1 | 0.0 | 0.0 | 0.00 | 0.00 | 0.00 | 79 | 1010.7 |
| 20260506123257 | 50 | 281 | 0.0 | 0.0 | 0.00 | 0.00 | 0.00 | 78 | 1010.5 |
| 20260506123022 | 50 | 281 | 0.0 | 0.0 | 0.00 | 0.00 | 0.00 | 78 | 1010.4 |
| 20260506122518 | 50 | 281 | 0.0 | 0.0 | 0.00 | 0.01 | 0.00 | 78 | 1010.4 |
| 20260506121757 | 50 | 281 | 0.0 | 0.0 | 0.00 | 0.01 | 0.00 | 77 | 1010.4 |
| 20260506121257 | 50 | 281 | 0.0 | 0.0 | 0.00 | 0.01 | 0.00 | 77 | 1010.3 |
| 20260506121240 | 50 | 281 | 0.0 | 0.0 | 0.00 | 0.01 | 0.00 | 78 | 1010.3 |
| 20260506120256 | 49 | 281 | 0.0 | 0.0 | 0.00 | 0.01 | 0.00 | 80 | 1010.2 |
| 20260506115752 | 49 | 281 | 0.0 | 0.0 | 0.00 | 0.01 | 0.00 | 79 | 1010.2 |
| 20260506115512 | 50 | 281 | 0.0 | 0.0 | 0.00 | 0.01 | 0.00 | 78 | 1010.1 |
| 20260506114755 | 50 | 281 | 0.0 | 0.0 | 0.00 | 0.02 | 0.00 | 78 | 1010.2 |
| 20260506114256 | 50 | 281 | 0.0 | 0.0 | 0.00 | 0.02 | 0.00 | 78 | 1010.0 |
| 20260506113756 | 50 | 281 | 0.0 | 0.0 | 0.00 | 0.02 | 0.00 | 77 | 1010.0 |
| 20260506113256 | 50 | 281 | 0.0 | 0.0 | 0.00 | 0.02 | 0.00 | 77 | 1010.1 |
| 20260506113014 | 51 | 281 | 0.0 | 0.0 | 0.00 | 0.02 | 0.00 | 77 | 1010.0 |
| 20260506112256 | 51 | 281 | 0.0 | 0.0 | 0.00 | 0.02 | 0.00 | 76 | 1010.0 |
| 20260506111756 | 51 | 281 | 0.0 | 0.0 | 0.00 | 0.02 | 0.00 | 76 | 1009.9 |
| 20260506111256 | 51 | 281 | 0.0 | 0.0 | 0.00 | 0.02 | 0.00 | 76 | 1009.9 |
| 20260506110756 | 51 | 281 | 0.0 | 0.0 | 0.00 | 0.03 | 0.00 | 76 | 1009.8 |
| 20260506110255 | 51 | 281 | 0.0 | 0.0 | 0.00 | 0.03 | 0.00 | 76 | 1009.8 |
| 20260506110024 | 51 | 281 | 0.0 | 0.0 | 0.00 | 0.03 | 0.00 | 76 | 1009.9 |
| 20260506105742 | 51 | 281 | 0.0 | 0.0 | 0.00 | 0.03 | 0.00 | 75 | 1009.9 |
| 20260506104755 | 51 | 281 | 0.0 | 0.0 | 0.00 | 0.04 | 0.00 | 75 | 1009.9 |
| 20260506104256 | 51 | 281 | 0.0 | 0.0 | 0.00 | 0.04 | 0.00 | 74 | 1009.8 |
| 20260506104242 | 51 | 281 | 0.0 | 0.0 | 0.00 | 0.04 | 0.00 | 73 | 1009.8 |
| 20260506103255 | 51 | 281 | 0.0 | 0.0 | 0.00 | 0.04 | 0.00 | 73 | 1009.7 |
| 20260506102751 | 52 | 281 | 0.0 | 0.0 | 0.00 | 0.04 | 0.00 | 72 | 1009.7 |
| 20260506102516 | 52 | 281 | 0.0 | 0.0 | 0.00 | 0.04 | 0.00 | 71 | 1009.6 |
| 20260506101754 | 52 | 281 | 0.0 | 0.0 | 0.00 | 0.05 | 0.00 | 69 | 1009.6 |
| 20260506101744 | 52 | 281 | 0.0 | 0.0 | 0.00 | 0.05 | 0.00 | 70 | 1009.6 |
| 20260506100754 | 53 | 281 | 0.0 | 0.0 | 0.00 | 0.05 | 0.00 | 69 | 1009.5 |
| 20260506100254 | 53 | 281 | 0.0 | 0.0 | 0.00 | 0.05 | 0.00 | 68 | 1009.4 |
| 20260506095754 | 53 | 281 | 0.0 | 0.0 | 0.00 | 0.05 | 0.00 | 66 | 1009.5 |
| 20260506095254 | 54 | 281 | 0.0 | 3.0 | 0.00 | 0.06 | 0.00 | 65 | 1009.6 |
| 20260506094750 | 54 | 281 | 0.0 | 3.0 | 0.00 | 0.06 | 0.00 | 65 | 1009.4 |
| 20260506094250 | 55 | 45 | 0.0 | 0.0 | 0.00 | 0.06 | 0.00 | 62 | 1009.2 |
| 20260506093754 | 54 | 45 | 0.0 | 0.0 | 0.00 | 0.06 | 0.00 | 64 | 1009.4 |
| 20260506093252 | 54 | 45 | 0.0 | 0.0 | 0.00 | 0.07 | 0.00 | 64 | 1009.4 |
| 20260506093016 | 55 | 78 | 0.0 | 0.0 | 0.00 | 0.08 | 0.00 | 64 | 1009.4 |
| 20260506092253 | 54 | 78 | 0.0 | 0.0 | 0.00 | 0.09 | 0.00 | 64 | 1009.4 |
| 20260506091752 | 54 | 78 | 0.0 | 0.0 | 0.00 | 0.10 | 0.00 | 64 | 1009.2 |
| 20260506091252 | 55 | 79 | 0.0 | 0.0 | 0.00 | 0.10 | 0.00 | 63 | 1009.2 |
| 20260506090752 | 55 | 78 | 0.0 | 0.0 | 0.00 | 0.10 | 0.00 | 63 | 1009.2 |
| 20260506090510 | 55 | 78 | 0.0 | 0.0 | 0.00 | 0.11 | 0.00 | 62 | 1009.1 |
| 20260506090011 | 55 | 133 | 0.0 | 0.0 | 0.00 | 0.11 | 0.00 | 61 | 1009.2 |
| 20260506085251 | 55 | 137 | 0.0 | 0.0 | 0.00 | 0.11 | 0.00 | 61 | 1009.2 |
| 20260506084753 | 55 | 353 | 0.0 | 0.0 | 0.00 | 0.12 | 0.00 | 61 | 1009.2 |
| 20260506084252 | 56 | 353 | 0.0 | 0.0 | 0.00 | 0.12 | 0.00 | 60 | 1009.2 |
| 20260506083752 | 56 | 353 | 0.0 | 0.0 | 0.00 | 0.12 | 0.00 | 59 | 1009.1 |
| 20260506083252 | 57 | 353 | 0.0 | 1.0 | 0.00 | 0.13 | 0.00 | 58 | 1009.1 |
| 20260506082752 | 57 | 97 | 0.0 | 3.0 | 0.00 | 0.13 | 0.00 | 57 | 1009.2 |
| 20260506082252 | 57 | 96 | 0.0 | 3.0 | 0.00 | 0.13 | 0.00 | 57 | 1009.4 |
| 20260506081748 | 56 | 52 | 0.0 | 1.0 | 0.00 | 0.14 | 0.00 | 57 | 1009.2 |
| 20260506081250 | 56 | 28 | 0.0 | 0.0 | 0.00 | 0.15 | 0.00 | 57 | 1009.4 |
| 20260506080752 | 56 | 28 | 0.0 | 0.0 | 0.00 | 0.15 | 0.00 | 57 | 1009.5 |
| 20260506080251 | 56 | 78 | 0.0 | 0.0 | 0.00 | 0.16 | 0.00 | 57 | 1009.5 |
| 20260506073250 | 58 | 354 | 0.0 | 0.0 | 0.00 | 0.19 | 0.00 | 51 | 1009.2 |
| 20260506072750 | 58 | 18 | 0.0 | 0.0 | 0.00 | 0.20 | 0.00 | 49 | 1009.2 |
| 20260506072510 | 59 | 20 | 0.0 | 6.0 | 0.00 | 0.20 | 0.00 | 47 | 1009.4 |
| 20260506071749 | 60 | 296 | 1.0 | 6.0 | 0.00 | 0.21 | 0.00 | 45 | 1009.2 |
| 20260506071250 | 59 | 288 | 0.0 | 3.0 | 0.00 | 0.22 | 0.00 | 46 | 1009.2 |
| 20260506070751 | 59 | 310 | 0.0 | 0.0 | 0.00 | 0.22 | 0.00 | 46 | 1009.2 |
| 20260506070250 | 60 | 306 | 0.0 | 0.0 | 0.00 | 0.22 | 0.00 | 45 | 1009.2 |
| 20260506062248 | 61 | 293 | 4.0 | 11.0 | 0.00 | 0.27 | 0.23 | 45 | 1008.9 |
| 20260506062013 | 61 | 238 | 4.0 | 9.0 | 0.00 | 0.28 | 0.23 | 45 | 1009.0 |
| 20260506061245 | 61 | 293 | 2.0 | 9.0 | 0.00 | 0.29 | 0.23 | 45 | 1009.0 |
| 20260506060746 | 60 | 279 | 2.0 | 5.0 | 0.00 | 0.31 | 0.23 | 46 | 1009.0 |
| 20260506060249 | 60 | 285 | 0.0 | 2.0 | 0.00 | 0.32 | 0.23 | 47 | 1009.0 |
| 20260506051247 | 62 | 350 | 0.0 | 5.0 | 0.00 | 0.40 | 0.23 | 46 | 1008.7 |
| 20260506050747 | 62 | 290 | 2.0 | 9.0 | 0.00 | 0.40 | 0.23 | 46 | 1008.6 |
| 20260506050247 | 63 | 261 | 3.0 | 11.0 | 0.00 | 0.40 | 0.23 | 46 | 1008.6 |
| 20260506044743 | 63 | 290 | 1.0 | 5.0 | 0.00 | 0.41 | 0.23 | 49 | 1008.4 |
| 20260506044243 | 64 | 216 | 1.0 | 5.0 | 0.00 | 0.42 | 0.23 | 49 | 1008.4 |
| 20260506043746 | 64 | 247 | 3.0 | 10.0 | 0.00 | 0.42 | 0.23 | 48 | 1008.3 |
| 20260506043246 | 64 | 310 | 4.0 | 11.0 | 0.00 | 0.42 | 0.23 | 48 | 1008.3 |
| 20260506043010 | 64 | 276 | 4.0 | 11.0 | 0.00 | 0.42 | 0.23 | 48 | 1008.2 |
| 20260506042246 | 64 | 319 | 4.0 | 10.0 | 0.00 | 0.42 | 0.23 | 48 | 1008.3 |
| 20260506042005 | 65 | 283 | 5.0 | 11.0 | 0.00 | 0.43 | 0.23 | 47 | 1008.2 |
| 20260506041246 | 65 | 271 | 4.0 | 11.0 | 0.00 | 0.43 | 0.23 | 47 | 1008.2 |
| 20260506040741 | 65 | 296 | 5.0 | 10.0 | 0.00 | 0.43 | 0.23 | 46 | 1008.1 |
| 20260506040508 | 65 | 303 | 3.0 | 10.0 | 0.00 | 0.43 | 0.23 | 45 | 1008.1 |
| 20260506040001 | 65 | 310 | 4.0 | 10.0 | 0.00 | 0.44 | 0.23 | 44 | 1008.1 |
| 20260506035245 | 64 | 278 | 5.0 | 10.0 | 0.00 | 0.44 | 0.23 | 43 | 1007.8 |
| 20260506034745 | 64 | 298 | 2.0 | 6.0 | 0.00 | 0.44 | 0.23 | 42 | 1007.7 |
| 20260506034245 | 64 | 290 | 2.0 | 6.0 | 0.00 | 0.44 | 0.23 | 42 | 1007.7 |
| 20260506033745 | 64 | 292 | 0.0 | 2.0 | 0.00 | 0.44 | 0.23 | 42 | 1007.6 |
| 20260506033245 | 65 | 286 | 0.0 | 4.0 | 0.00 | 0.44 | 0.23 | 42 | 1007.5 |
| 20260506032745 | 65 | 296 | 1.0 | 4.0 | 0.00 | 0.44 | 0.23 | 41 | 1007.4 |
| 20260506032241 | 65 | 274 | 2.0 | 9.0 | 0.00 | 0.44 | 0.23 | 40 | 1007.4 |
| 20260506031741 | 65 | 299 | 4.0 | 9.0 | 0.00 | 0.44 | 0.23 | 40 | 1007.2 |
| 20260506031508 | 65 | 295 | 2.0 | 6.0 | 0.00 | 0.44 | 0.23 | 40 | 1007.2 |
| 20260506030745 | 66 | 266 | 2.0 | 7.0 | 0.00 | 0.44 | 0.23 | 39 | 1007.1 |
| 20260506030244 | 66 | 251 | 3.0 | 9.0 | 0.00 | 0.45 | 0.23 | 39 | 1007.0 |
| 20260506025744 | 66 | 299 | 4.0 | 9.0 | 0.00 | 0.45 | 0.23 | 38 | 1007.1 |
| 20260506025243 | 66 | 303 | 4.0 | 7.0 | 0.00 | 0.46 | 0.23 | 37 | 1007.0 |
| 20260506024743 | 66 | 326 | 1.0 | 7.0 | 0.00 | 0.47 | 0.23 | 37 | 1007.0 |
| 20260506024244 | 66 | 303 | 4.0 | 9.0 | 0.00 | 0.47 | 0.23 | 36 | 1006.9 |
| 20260506023744 | 66 | 281 | 2.0 | 10.0 | 0.00 | 0.48 | 0.23 | 35 | 1006.8 |
| 20260506023504 | 67 | 330 | 5.0 | 10.0 | 0.00 | 0.49 | 0.23 | 35 | 1006.6 |
| 20260506022744 | 67 | 288 | 4.0 | 9.0 | 0.00 | 0.49 | 0.23 | 34 | 1006.5 |
| 20260506022244 | 67 | 309 | 4.0 | 10.0 | 0.00 | 0.49 | 0.23 | 34 | 1006.4 |
| 20260506021743 | 67 | 298 | 4.0 | 14.0 | 0.00 | 0.50 | 0.23 | 33 | 1006.2 |
| 20260506021243 | 67 | 271 | 6.0 | 14.0 | 0.00 | 0.50 | 0.23 | 32 | 1006.2 |
| 20260506020743 | 67 | 302 | 6.0 | 16.0 | 0.00 | 0.51 | 0.23 | 33 | 1006.1 |
| 20260506020243 | 68 | 255 | 6.0 | 16.0 | 0.00 | 0.52 | 0.23 | 33 | 1006.0 |
| 20260506020004 | 68 | 296 | 6.0 | 14.0 | 0.00 | 0.53 | 0.23 | 34 | 1006.0 |
| 20260506015243 | 68 | 296 | 6.0 | 14.0 | 0.00 | 0.54 | 0.23 | 34 | 1005.9 |
| 20260506014738 | 69 | 238 | 5.0 | 14.0 | 0.00 | 0.55 | 0.23 | 34 | 1005.9 |
| 20260506014242 | 69 | 286 | 8.0 | 16.0 | 0.00 | 0.56 | 0.23 | 34 | 1006.0 |
| 20260506013957 | 69 | 251 | 9.0 | 16.0 | 0.00 | 0.56 | 0.23 | 34 | 1005.9 |
| 20260506013507 | 70 | 266 | 8.0 | 16.0 | 0.00 | 0.57 | 0.23 | 33 | 1005.9 |
| 20260506012742 | 70 | 279 | 8.0 | 19.0 | 0.00 | 0.58 | 0.23 | 34 | 1005.7 |
| 20260506012500 | 70 | 286 | 9.0 | 20.0 | 0.00 | 0.59 | 0.23 | 34 | 1005.7 |
| 20260506011742 | 70 | 293 | 10.0 | 20.0 | 0.00 | 0.60 | 0.23 | 33 | 1005.6 |
| 20260506011459 | 71 | 293 | 6.0 | 16.0 | 0.00 | 0.60 | 0.23 | 32 | 1005.6 |
| 20260506010738 | 71 | 286 | 6.0 | 20.0 | 0.00 | 0.60 | 0.23 | 32 | 1005.6 |
| 20260506010239 | 71 | 261 | 7.0 | 20.0 | 0.00 | 0.61 | 0.23 | 31 | 1005.5 |
| 20260506010008 | 72 | 24 | 10.0 | 17.0 | 0.00 | 0.61 | 0.23 | 29 | 1005.5 |
| 20260506005242 | 72 | 292 | 8.0 | 17.0 | 0.00 | 0.61 | 0.23 | 29 | 1005.3 |
| 20260506004741 | 72 | 226 | 10.0 | 17.0 | 0.00 | 0.62 | 0.23 | 29 | 1005.2 |
| 20260506004241 | 73 | 250 | 6.0 | 15.0 | 0.00 | 0.62 | 0.23 | 29 | 1005.2 |